Location: Harwich
(41.7160°N, 69.9939°W)
Time: 07:53:52
(UTC+01:00)

Tiangong - Visible Passes

Search period start: 06 December 2022 00:00
Search period end: 16 December 2022 00:00
Orbit: 386 x 393 km, 41.5° (Epoch: 06 December)

Date Brightness Start Highest point End Pass type
(mag) Time Alt. Az. Time Alt. Az. Time Alt. Az.
06 Dec -0.8 00:15:26 10° W 00:17:35 39° W 00:17:35 39° W visible
06 Dec -2.2 23:17:18 10° W 23:20:30 88° S 23:22:18 24° E visible
07 Dec 1.4 00:54:17 10° W 00:54:37 12° W 00:54:37 12° W visible
07 Dec -1.8 23:56:05 10° W 23:59:14 60° SSW 23:59:21 59° S visible
08 Dec -2.0 22:57:52 10° W 23:01:02 76° S 23:04:08 11° ESE visible
09 Dec 0.5 00:35:00 10° W 00:36:28 20° WSW 00:36:28 20° WSW visible
09 Dec -1.0 23:36:35 10° W 23:39:35 40° SSW 23:41:21 20° SE visible
10 Dec -1.5 22:38:13 10° W 22:41:21 57° SSW 22:44:28 10° ESE visible
11 Dec 0.5 00:15:49 10° WSW 00:17:53 16° SSW 00:18:42 15° SSW visible
11 Dec 0.1 23:17:00 10° W 23:19:41 25° SSW 23:22:21 10° SSE visible
13 Dec 0.9 22:57:36 10° WSW 22:59:30 15° SSW 23:01:24 10° S visible
